Location: Unspecified
(0.0000°N, 0.0000°E)
Time: 04:19:44
(UTC+01:00)

Cosmos 2263 Rocket - Visible Passes

Search period start: 01 November 2014 00:00
Search period end: 11 November 2014 00:00
Orbit: 825 x 848 km, 71.0° (Epoch: 31 October)

Date Brightness Start Highest point End Pass type
(mag) Time Alt. Az. Time Alt. Az. Time Alt. Az.
01 Nov 2.6 05:20:25 10° S 05:25:56 64° ESE 05:31:24 10° NNE visible
02 Nov 2.8 05:03:51 10° S 05:09:19 57° ESE 05:14:44 10° NNE visible
03 Nov 2.9 04:47:19 10° S 04:52:42 51° ESE 04:58:03 10° NNE visible
04 Nov 3.1 04:30:47 10° S 04:36:05 45° ESE 04:41:21 10° NNE visible
04 Nov 3.8 06:18:05 10° W 06:19:44 11° WNW 06:21:22 10° WNW visible
05 Nov 3.3 04:14:17 10° S 04:19:29 40° ESE 04:24:37 10° NE visible
05 Nov 3.7 06:00:41 10° W 06:03:06 13° WNW 06:05:32 10° NW visible
